AZU9234 SBKP-SBIL

Flight info

Callsign AZU9234
Flight time N/A
Altitude 39000
Route KONVI UZ23 UTLON DCT DALOX
Aircraft A20N/M-SDE2E3FGHIJ1RWXY/LB1

Departure

Time 2026-05-01 14:50
Airport Viracopos International Airport (SBKP)

Arrival

Time N/A
Airport Bahia - Jorge Amado Airport (SBIL)
Time Latitude Longitude Altitude Speed Heading
2026-05-01 14:26 -23.00475 -47.14974 2178 ft 0 kts 38°
2026-05-01 14:39 -23.00479 -47.14977 2178 ft 2 kts 38°
2026-05-01 14:39 -23.00490 -47.14987 2178 ft 2 kts 38°
2026-05-01 14:39 -23.00498 -47.14994 2178 ft 2 kts 38°
2026-05-01 14:39 -23.00512 -47.14998 2178 ft 2 kts 349°
2026-05-01 14:40 -23.00525 -47.14992 2178 ft 0 kts 313°
2026-05-01 14:40 -23.00528 -47.14986 2178 ft 1 kts 305°
2026-05-01 14:40 -23.00530 -47.14984 2178 ft 0 kts 307°
2026-05-01 14:44 -23.00526 -47.14990 2178 ft 2 kts 307°
2026-05-01 14:45 -23.00510 -47.15013 2178 ft 5 kts 307°
2026-05-01 14:45 -23.00434 -47.15118 2178 ft 10 kts 308°
2026-05-01 14:45 -23.00377 -47.15164 2178 ft 10 kts
2026-05-01 14:46 -23.00312 -47.15117 2178 ft 11 kts 38°
2026-05-01 14:46 -23.00185 -47.15008 2178 ft 12 kts 37°
2026-05-01 14:46 -23.00115 -47.14951 2178 ft 12 kts 36°
2026-05-01 14:47 -23.00048 -47.14896 2178 ft 13 kts 37°
2026-05-01 14:47 -23.00000 -47.14828 2178 ft 12 kts 49°
2026-05-01 14:47 -22.99939 -47.14775 2178 ft 8 kts 39°
2026-05-01 14:48 -22.99929 -47.14766 2178 ft 0 kts 41°
2026-05-01 14:48 -22.99918 -47.14755 2178 ft 3 kts 47°
2026-05-01 14:49 -22.99880 -47.14648 2178 ft 9 kts 123°
2026-05-01 14:49 -23.00275 -47.14099 2179 ft 106 kts 127°
2026-05-01 14:50 -23.01087 -47.12975 2210 ft 170 kts 126°
2026-05-01 14:50 -23.02204 -47.09931 3617 ft 171 kts 75°
2026-05-01 14:51 -23.01908 -47.08696 4131 ft 176 kts 71°
2026-05-01 14:51 -23.01286 -47.05951 4716 ft 205 kts 75°
2026-05-01 14:52 -23.00643 -47.02749 5234 ft 242 kts 66°
2026-05-01 14:52 -22.99714 -47.01186 5579 ft 256 kts 41°
2026-05-01 14:52 -22.96775 -46.98782 6861 ft 269 kts 35°
2026-05-01 14:53 -22.95269 -46.97570 7488 ft 273 kts 36°
2026-05-01 14:53 -22.93721 -46.96314 7865 ft 276 kts 36°
2026-05-01 14:53 -22.92192 -46.95068 7964 ft 277 kts 36°
2026-05-01 14:53 -22.90644 -46.93798 7965 ft 277 kts 37°
2026-05-01 14:54 -22.89157 -46.92458 8043 ft 282 kts 39°
2026-05-01 14:54 -22.87824 -46.91222 8572 ft 287 kts 40°
2026-05-01 14:54 -22.86318 -46.89822 9367 ft 287 kts 40°
2026-05-01 14:54 -22.84798 -46.88410 9898 ft 289 kts 40°
2026-05-01 14:55 -22.83262 -46.86984 10179 ft 291 kts 40°
2026-05-01 14:55 -22.81723 -46.85556 10215 ft 291 kts 39°
2026-05-01 14:55 -22.80191 -46.84137 10219 ft 290 kts 39°
2026-05-01 14:55 -22.78656 -46.82714 10223 ft 290 kts 39°
2026-05-01 14:56 -22.77144 -46.81253 10227 ft 290 kts 43°
2026-05-01 14:56 -22.75709 -46.79708 10230 ft 290 kts 44°
2026-05-01 14:56 -22.74286 -46.78148 10230 ft 291 kts 44°
2026-05-01 14:56 -22.72867 -46.76591 10233 ft 291 kts 45°
2026-05-01 14:57 -22.71439 -46.75028 10236 ft 291 kts 45°
2026-05-01 14:57 -22.68591 -46.71913 10236 ft 290 kts 45°
2026-05-01 14:57 -22.67162 -46.70351 10238 ft 290 kts 44°
2026-05-01 14:58 -22.65748 -46.68773 10238 ft 290 kts 50°
2026-05-01 14:58 -22.64784 -46.66860 10233 ft 293 kts 74°
2026-05-01 14:58 -22.64633 -46.64663 10430 ft 303 kts 94°
2026-05-01 14:58 -22.64842 -46.62339 10936 ft 315 kts 95°
2026-05-01 14:59 -22.65060 -46.59978 11609 ft 319 kts 95°
2026-05-01 14:59 -22.65273 -46.57560 12260 ft 323 kts 95°
2026-05-01 14:59 -22.65480 -46.55120 12823 ft 330 kts 95°
2026-05-01 14:59 -22.65683 -46.52668 13159 ft 333 kts 95°
2026-05-01 15:00 -22.66094 -46.47647 13259 ft 334 kts 95°
2026-05-01 15:00 -22.66297 -46.45139 13267 ft 333 kts 95°
2026-05-01 15:00 -22.66497 -46.42656 13276 ft 333 kts 95°
2026-05-01 15:01 -22.66697 -46.40158 13279 ft 333 kts 95°
2026-05-01 15:01 -22.66873 -46.37949 13283 ft 333 kts 95°
2026-05-01 15:01 -22.67071 -46.35456 13285 ft 333 kts 95°
2026-05-01 15:01 -22.67271 -46.32939 13287 ft 333 kts 94°
2026-05-01 15:02 -22.67468 -46.30441 13291 ft 333 kts 94°
2026-05-01 15:02 -22.67531 -46.29641 13291 ft 333 kts 94°
2026-05-01 15:02 -22.67859 -46.25467 13294 ft 333 kts 95°
2026-05-01 15:02 -22.68056 -46.22968 13296 ft 334 kts 95°
2026-05-01 15:03 -22.68246 -46.20467 13294 ft 334 kts 92°
2026-05-01 15:03 -22.67954 -46.18000 13278 ft 333 kts 68°
2026-05-01 15:03 -22.66686 -46.15909 13386 ft 338 kts 42°
2026-05-01 15:03 -22.64850 -46.14300 13992 ft 340 kts 37°
2026-05-01 15:04 -22.63009 -46.12721 14691 ft 340 kts 37°
2026-05-01 15:04 -22.61165 -46.11116 15296 ft 342 kts 37°
2026-05-01 15:04 -22.59301 -46.09483 15874 ft 346 kts 37°
2026-05-01 15:04 -22.57445 -46.07849 16448 ft 348 kts 37°
2026-05-01 15:05 -22.55547 -46.06177 17013 ft 352 kts 37°
2026-05-01 15:05 -22.53652 -46.04507 17571 ft 355 kts 37°
2026-05-01 15:05 -22.51738 -46.02819 18114 ft 358 kts 37°
2026-05-01 15:05 -22.49802 -46.01115 18653 ft 361 kts 37°
2026-05-01 15:06 -22.47855 -45.99397 19188 ft 364 kts 37°
2026-05-01 15:06 -22.45865 -45.97644 19719 ft 367 kts 37°
2026-05-01 15:06 -22.43892 -45.95907 20236 ft 370 kts 37°
2026-05-01 15:06 -22.41896 -45.94149 20755 ft 373 kts 37°
2026-05-01 15:07 -22.40053 -45.92527 21225 ft 376 kts 37°
2026-05-01 15:07 -22.38086 -45.90794 21711 ft 379 kts 37°
2026-05-01 15:07 -22.36020 -45.88977 22212 ft 382 kts 37°
2026-05-01 15:07 -22.33951 -45.87157 22712 ft 385 kts 37°
2026-05-01 15:08 -22.31882 -45.85339 23204 ft 387 kts 37°
2026-05-01 15:08 -22.29790 -45.83499 23685 ft 390 kts 37°
2026-05-01 15:08 -22.27652 -45.81623 24167 ft 394 kts 37°
2026-05-01 15:08 -22.25519 -45.79773 24636 ft 396 kts 36°
2026-05-01 15:09 -22.23342 -45.77894 25099 ft 399 kts 36°
2026-05-01 15:09 -22.21188 -45.76036 25549 ft 402 kts 36°
2026-05-01 15:09 -22.18983 -45.74132 26006 ft 405 kts 36°
2026-05-01 15:09 -22.16773 -45.72224 26454 ft 407 kts 36°
2026-05-01 15:10 -22.14547 -45.70302 26893 ft 410 kts 36°
2026-05-01 15:10 -22.10073 -45.66444 27721 ft 415 kts 36°
2026-05-01 15:10 -22.07911 -45.64581 28100 ft 418 kts 36°
2026-05-01 15:11 -22.05616 -45.62604 28501 ft 421 kts 36°
2026-05-01 15:11 -22.01018 -45.58644 29320 ft 425 kts 36°
2026-05-01 15:11 -21.98689 -45.56639 29698 ft 428 kts 36°
2026-05-01 15:12 -21.96371 -45.54643 30073 ft 431 kts 36°
2026-05-01 15:12 -21.91656 -45.50587 30793 ft 436 kts 36°
2026-05-01 15:12 -21.89292 -45.48554 31133 ft 439 kts 36°
2026-05-01 15:13 -21.82035 -45.42324 32099 ft 446 kts 36°
2026-05-01 15:14 -21.77139 -45.38125 32666 ft 452 kts 36°
2026-05-01 15:14 -21.74676 -45.36014 32950 ft 454 kts 36°
2026-05-01 15:14 -21.69678 -45.31735 33531 ft 458 kts 36°
2026-05-01 15:15 -21.64674 -45.27452 34018 ft 463 kts 36°
2026-05-01 15:15 -21.59622 -45.23133 34542 ft 465 kts 36°
2026-05-01 15:16 -21.54544 -45.18792 35246 ft 462 kts 36°
2026-05-01 15:16 -21.49534 -45.14516 35818 ft 461 kts 36°
2026-05-01 15:17 -21.44692 -45.10387 36308 ft 461 kts 36°
2026-05-01 15:18 -21.37136 -45.03952 36985 ft 462 kts 36°
2026-05-01 15:18 -21.34606 -45.01799 37192 ft 462 kts 36°
2026-05-01 15:19 -21.27053 -44.95376 37802 ft 461 kts 36°
2026-05-01 15:19 -21.22017 -44.91097 38185 ft 461 kts 36°
2026-05-01 15:19 -21.19496 -44.88958 38358 ft 461 kts 36°
2026-05-01 15:20 -21.14464 -44.84690 38701 ft 460 kts 36°
2026-05-01 15:20 -21.11959 -44.82567 38844 ft 461 kts 36°
2026-05-01 15:20 -21.09413 -44.80410 38999 ft 461 kts 36°
2026-05-01 15:21 -21.06893 -44.78276 39162 ft 461 kts 36°
2026-05-01 15:21 -21.01750 -44.74188 39259 ft 460 kts 33°
2026-05-01 15:22 -20.93920 -44.68217 39264 ft 458 kts 33°
2026-05-01 15:22 -20.88852 -44.64351 39270 ft 458 kts 33°
2026-05-01 15:23 -20.83980 -44.60634 39272 ft 456 kts 33°
2026-05-01 15:23 -20.78812 -44.56694 39276 ft 455 kts 33°
2026-05-01 15:24 -20.73635 -44.52751 39284 ft 457 kts 33°
2026-05-01 15:24 -20.68410 -44.48774 39286 ft 462 kts 33°
2026-05-01 15:25 -20.63173 -44.44789 39275 ft 463 kts 33°
2026-05-01 15:25 -20.57901 -44.40779 39266 ft 463 kts 33°
2026-05-01 15:26 -20.52669 -44.36805 39265 ft 462 kts 33°
2026-05-01 15:26 -20.47687 -44.33023 39257 ft 461 kts 33°
2026-05-01 15:27 -20.42449 -44.29030 39253 ft 461 kts 34°
2026-05-01 15:28 -20.34724 -44.22886 39258 ft 462 kts 34°
2026-05-01 15:28 -20.29591 -44.18806 39259 ft 461 kts 34°
2026-05-01 15:29 -20.21916 -44.12724 39259 ft 460 kts 34°
2026-05-01 15:30 -20.11810 -44.04730 39246 ft 459 kts 34°
2026-05-01 15:31 -19.96440 -43.92625 39258 ft 459 kts 34°
2026-05-01 15:32 -19.86456 -43.84779 39250 ft 459 kts 34°
2026-05-01 15:34 -19.70920 -43.73472 39242 ft 458 kts 32°